Timeline UpdatesTrip UpdatesNews PostsPvt Posts♥♥Travel TipsAdmin PostsConv PostsFollowed PostsChat RequestsBlog PostsPNR Posts

Disclaimer
Search
 
 
Tue Oct 21, 2014 15:54:19 ISTHomeTrainsΣChainsAtlasPNRForumGalleryNewsFAQTripsMembersLoginFeedback
No Recent News for this Train
Other Trains in the News **new
Latest...
running with se1
Wed Aug 27, 2014 (09:44AM)
⇐ Return Journey: Train# 18237

18238/Chhattisgarh Express

Time-Table HAS CHANGED.
Oct 15 (6:58PM)
Change Departure Station:
Change Arrival Station:
Post a Train Travel TipPost a Train Travel Tip **new
Post a Comment/Question/Picture/VideoPost a Comment/Question/Picture/Video
Inaugural Run
Sat Jan 01, 1977
Pantry/Catering
✓ Pantry Car Avbl
✓ Catering Avbl
Loco/Rake Reversals
NGP/Nagpur Junction (8);
RSA - Rake Sharing
0
Rake/Coach Composition
LOCO-SLR-GS-EXT-S1-S2-S3-S4-S5-S6-S7-S8-S9-S10-PC-S11-S12-B3-B2-B1-A1-HA1-GS-SLR-SP1
Loco
ASR - NZM ---- TKD WDP4 NZM - NGP --- AJNI...
Read more...
WAP7 NGP - BSP --- ET WAP4 Author: Mahesh Gupta Entry# 295348
News    PNR    Forum    Time-Table    Availability    Fare Chart    Map    Arr/Dep History    Trips    Gallery    ΣChains    X/O    Timeline    
Travel Time: 44h 5m    86 halts    Distance: 2011 km    Avg Speed: 45 km/hr
Type: Mail/Express
Zone: SECR/South East Central
Departs @ 16:15 (Avg 7m late)
Platform# 2
SMTWTFS
Amritsar Junction/ASR 
Arrives @ 12:20 +2 nights (Avg 10m late)
Platform# 8
SMTWTFS
Bilaspur Junction/BSP 

86 halts. 279 intermediate Stations between Amritsar Junction and Bilaspur Junction

Show ALL intermediate Stations  Show Old Time-Table

#TrkCodeStation NameX/OArrivesAvgDepartsAvgHaltPFDay#KmSpeedElevZoneAddress
1/==/ASRAmritsar Junction (5)»  -16:15+7210.077233mNRAmritsar 143002, Punjab
2/==/JNLJandiala (2)  16:30+1616:32+162m2119.280238mNRJandiala, Punjab
3/==/BEASBeas Junction (2)  16:50+1816:52+192m2143.061238mNRBeas, Punjab
4/==/KREKartarpur (2)X  17:13+1817:15+182m1164.568236mNRKartarpur, Punjab
5/==/JUCJalandhar City Junction (5)X  17:28+2117:35 17:34+257 6m2179.129239mNRJalandhar 144001, Punjab
6/==/JRCJalandhar Cantt. Junction (3)X  17:48 17:44+2317:50 17:46+312m2184.065239mNRNear Rama Mandi, Punjab
7/==/PGWPhagwara Junction (3)  18:05 18:01+3218:07 18:03+322m11100.345245mNRPhagwara, Punjab
8/==/GRYGoraya (2)XO  18:21 18:16+3118:23 18:18+342m11110.127240mNRGoraya, Punjab
9/==/PHRPhillaur Junction (3)X  18:46+1918:48+202m11122.846246mNRPhillaur, Punjab
10/==/LDHLudhiana Junction (7)X  19:05+2019:15+2110m11135.922246mNRLudhiana 141001, Punjab
11/==/SNLSanehwal (3)X  19:56+319:58+72m21151.155260mNRLudhiana, Punjab
12/==/DOADoraha (2)  20:07 20:06+1320:08+131 2m21158.457261mNRDoraha, Punjab
13/==/CHAChawapail (2)X  20:18+1420:20+142m21167.866267mNRLudhiana, Punjab
14/==/KNNKhanna (3)  20:30+1620:32+162m21178.854269mNRNH 1, Punjab
15/==/GVGMandi Gobindgarh (2)  20:41+1720:43+182m21186.949268mNRMandi Gobindgarh, Punjab
16/==/SIRSirhind Junction (3)X  20:55+1820:57+182m21196.765271mNRSirhind, Punjab
17/==/RPJRajpura Junction (3)X  21:20+1921:22+192m21221.556272mNRNH-1, Punjab
18/==/UBCAmbala City (3)X  21:45 21:44+1721:46+171 2m11242.021273mNRNH-1, Haryana
19/==/UMBAmbala Cantt. Junction (7)X  22:08+1422:20+1212m21249.668278mNRAmbala 133001, Haryana
20/==/RAABarara (2)  22:42+1622:44+172m11274.371279mNRBarara, Haryana
21/==/JUDWJagadhri Workshop (2)  23:02+2023:04+202m11295.643280mNRRailway Workshop Road, Haryana
22/==/JUDYamunanagar-Jagadhri (3)  23:11+2023:13+202m21300.635275mNRYamunanagar, Haryana
23/==/SRESaharanpur Junction (6)X  00:05+500:15+810m32330.768276mNRSaharanpur, Uttar Pradesh
24%--%DBDDeoband (2)  00:45+2000:47+212m12364.976258mNRSaharanpur, Uttar Pradesh
25%--%MOZMuzaffarnagar (3)  01:06+2201:08+222m12388.978247mNRMuzaffarNagar, Uttar Pradesh
26%--%KATKhatauli (2)  01:34 01:25+2301:36 01:27+272m--2411.177239mNRKhatauli, Uttar Pradesh
27%--%DRLADaurala (1)  01:56 01:41+3001:58 01:43+302m12429.051232mNRMeerut, Uttar Pradesh
28%--%MUTMeerut Cantt. (2)  02:09 01:56+3302:11 01:58+332m12440.229230mNRMeerut, Uttar Pradesh
29%--%MTCMeerut City Junction (6)  02:20 02:07+3302:25 02:12+325m22444.569229mNRMeerut, Uttar Pradesh
30%==%MDNRModinagar (2)  02:39 02:29+3302:41 02:31+332m--2464.060221mNRGhaziabad, Uttar Pradesh
31%==%GUHGuldhar (2)  02:55 02:49+3302:57 02:51+322m--2482.116224mNRGhaziabad, Uttar Pradesh
32%==%GZBGhaziabad Junction (6)  03:28+1403:30+152m32491.745217mNRGhaziabad, Uttar Pradesh
33/==/SBBSahibabad Junction (5)  03:40 03:39+2003:41+201 2m--2498.433209mNRGhaziabad, Uttar Pradesh
34/==/NZMDelhi Hazrat Nizamuddin (7)X04:15 04:10+1904:40+1625 30m22514.560209mNRNew Delhi 110013, Delhi NCT
35/==/BVHBallabgarh (5)X  05:09+1605:11+162m42543.342203mNRFaridabad, Haryana
36/==/PWLPalwal (8)X  05:41+905:43+122m42564.585200mNRPalwal, Haryana
37/==/KSVKosi Kalan (3)X  06:13+1806:15+192m22607.056189mNCRKosi Kalan, Uttar Pradesh
38/==/CHJChata (4)X  06:26+1906:28+192m12617.369 NCRChhata, Uttar Pradesh
39/==/MTJMathura Junction (10)X  06:55+2307:00+225m12648.462179mNCRMathura, Uttar Pradesh
40/==/RKMRaja Ki Mandi (4)XO  07:48+2907:50+292m22698.16170mNCRAgra, Uttar Pradesh
41/==/AGCAgra Cantt. (6)X  08:30+1108:40 08:38+1510 8m12702.175174mNCRAgra, Uttar Pradesh
42/==/DHODholpur Junction (3)X  09:20+2109:22+372m22754.762177mNCRDholpur, Rajasthan
43/==/MRAMorena (3)X  09:45 09:48+4409:50+505 2m12781.672176mNCRMorena, Madhya Pradesh
44/==/BAOBanmorXO  10:06+5210:08+562m--2800.931189mNCRGwalior, Madhya Pradesh
45/==/GWLGwalior Junction (4)XO  10:45+4810:50+505m12820.163214mNCRGwalior, Madhya Pradesh
46/==/DBADabra (3)  11:30+5111:32+522m32862.563 NCRDabra(District-Gwalior), Madhya Pradesh
47/==/SORSonagir (2)O  11:50+5111:52+522m--2881.330211mNCRDatia, Madhya Pradesh
48/==/DAADatia (2)X  12:15+4612:17+462m--2892.828264mNCRDatia, Madhya Pradesh
49/==/JHSJhansi Junction (7)  13:10+2313:20+2810m--2917.967259mNCRJhansi, Uttar Pradesh
50/==/BABBabina (3)X  13:45 13:43+3413:47 13:45+352m12943.452285mNCRBabina, Uttar Pradesh
51/==/BZYBasai (3)X  13:59+3514:01+372m12955.559287mNCR07522289600(Gate ManMob. - 9452701575), Madhya Pradesh
52/==/TBTTalbahat (4)X  14:17 14:14+3614:19 14:16+402m22968.3100314mNCRKhaniyadhana Station Rd, Madhya Pradesh
53/==/LARLalitpur (3)  14:48 14:40+4614:50 14:42+492m121008.291373mNCRLalitpur, Uttar Pradesh
54/==/JLNJakhalaun (3) new halt!!XO  14:53+5314:55+542m--21024.946394mNCRLalitpur(05176-272220), Uttar Pradesh
55/==/DUADhaura (3)XO  15:10+5215:12+522m--21036.528407mNCRDhaura Tanda, Madhya Pradesh
56/==/BINABina Junction (5)X  16:25+2516:30+265m221071.169414mWCRJn Pt - KATNI/GUNA/ BPL/JHS, Madhya Pradesh
57/==/MABAMandi Bamora (3)XO  16:45+3316:47+332m221088.378413mWCRState Highway 14, Madhya Pradesh
58/==/BAQGanj Basoda (4)  17:09+3417:11+342m221116.884 WCRVidisha, Madhya Pradesh
59/==/BHSVidisha (3)X  17:39+3817:41+392m221156.154 WCRVidisha, Madhya Pradesh
60/==/BPLBhopal Junction (6)X  18:40+3618:45+375m121209.738497mWCRBhopal, Madhya Pradesh
61/==/HBJBhopal HabibGanj (5)  18:55+4118:57+432m--21215.943496mWCRHabibGanj, Madhya Pradesh
62/==/HBDHoshangabad (2)XO  20:30+3820:32+342m221283.333308mWCRHoshangabad, Madhya Pradesh
63/==/ETItarsi Junction (7)X  21:10 21:05+2621:15+285 10m321301.468329mWCRItarsi 461111, Madhya Pradesh
64/==/GDYAGhoradongri (3)X  22:17+4122:19+422m--21371.849 CRBetul, Madhya Pradesh
65/==/BZUBetul (3)  23:02 23:03+4623:05+473 2m--21407.746644mCRBetul, Madhya Pradesh
66/==/AMLAAmla Junction (5)  23:35+3900:10+2735m121430.698733mCRAmla Distt. Betul, Madhya Pradesh
67/==/MTYMultai (2)  00:24+3100:26+322m--31453.458762mCRMultai, Madhya Pradesh
68/==/PARPandhurna (2)  01:08+3901:10+392m131494.285481mCRDistt: Chhindwara, Madhya Pradesh
69/==/NRKRNarkher Junction (4)X  01:23+4301:25+432m--31512.666411mCRNarkher, Maharashtra
70/==/KATLKatol (2)X  01:48+4001:50+412m--31537.737 CRKatol, Maharashtra
71/==/NGPNagpur Junction (8)03:30+903:55+1125m631598.648314mCRNagpur 440001, Maharashtra
72/==/KPKamptee (3)X  04:13+2004:15+232m--31612.996290mSECRKamptee, Maharashtra
73/==/BRDBhandara Road (3)  04:45+3004:47+322m231660.877266mSECRState Highway 252 Bhandara District, Maharashtra
74/==/TMRTumsar Road (5)  05:01+3105:03+322m--31678.881267mSECRDistt. Bhandara, Maharashtra
75/==/TROTirora (3)  05:18+3405:20+362m--31699.157282mSECRDist Gondia, Maharashtra
76/==/GGondia Junction (7)X  05:51+3105:56+305m431728.498316mSECRGondia 441601, Maharashtra
77/==/AGNAmgaon (2)  06:10+3706:12+372m--31751.280317mSECRGondia, Maharashtra
78/==/SKSSalekasa (2)  06:23+3906:25+392m--31766.056312mSECRRajnandgaon, Chhattisgarh
79/==/DGGDongargarh (2)XO  07:03+4107:05+422m--31801.763 SECRDongargarh, Chhattisgarh
80/==/RJNRaj Nandgaon (3)X  07:35+3607:40+355m--31833.230313mSECRRajnandgaon, Chhattisgarh
81/==/DURGDurg Junction (6)X  08:40+908:55+1115m--31863.760299mSECRPh: 91-788-2322059, Chhattisgarh
82/==/BPHBBhilai Power House (3)X  09:04+1:0509:06+1:052m--31872.743312mSECRBhilai, Chhattisgarh
83/==/RRaipur Junction (6)  09:45+1309:55+1710m531900.769297mSECRRaipur, Chhattisgarh
84/==/TLDTilda (3)X  10:28+2910:30+302m--31938.849 SECRBanjari Rd, Chhattisgarh
85/==/HNHathbandhX  10:43+2710:45+282m--31949.671283mSECRRaipur, Chhattisgarh
86/==/BYTBhatapara (4)X  10:58+2811:00+282m--31964.961270mSECRBanjari Road, Chhattisgarh
87/==/BYLBelhaX  11:30+2511:32+262m--31995.519269mSECRCollege Road, Chhattisgarh
88/==/BSPBilaspur Junction (8)•  12:20+10-832011.1-271mSECRBilaspur, Chhattisgarh
Scroll to Top
Scroll to Bottom